VA3PPY Weather Reports


time (UTC)temp
C
wind
direction
speed
KPH
gust
KPH
rain 1hr
cm
rain 24hr
cm
rain mn
cm
humidity
%
barometer
mb
20260905011513 18 43 0.0 0.0 0.00 0.03 0.03 91 1013.4
20260905010007 19 43 0.0 0.0 0.00 0.03 0.03 91 1013.6
20260905004506 19 43 0.0 0.0 0.00 0.03 0.03 90 1013.3
20260905003010 20 43 0.0 0.0 0.00 0.03 0.03 89 1013.0
20260905001510 20 43 0.0 0.0 0.00 0.03 0.03 89 1012.9
20260905000007 20 43 0.0 0.0 0.00 0.03 0.03 89 1012.9
20260904234506 21 43 0.0 0.0 0.00 0.03 0.03 88 1012.9
20260904233007 21 43 0.0 0.0 0.00 0.03 0.03 89 1013.1
20260904231510 21 43 0.0 0.0 0.00 0.03 0.03 90 1013.1
20260904230019 21 43 0.0 0.0 0.00 0.03 0.03 89 1012.9
20260904224506 21 43 0.0 0.0 0.00 0.03 0.03 88 1012.8
20260904223007 21 43 0.0 0.0 0.00 0.03 0.03 89 1012.8
20260904221507 21 43 0.0 0.0 0.00 0.03 0.03 88 1012.7
20260904220007 21 43 0.0 0.0 0.00 0.03 0.03 87 1012.4
20260904214507 22 43 1.6 4.8 0.00 0.20 0.03 87 1012.3
20260904213007 22 43 0.0 4.8 0.00 0.20 0.03 88 1012.0
20260904211510 22 43 0.0 3.2 0.00 0.20 0.03 88 1011.9
20260904210017 22 43 1.6 6.4 0.00 0.20 0.03 89 1012.0
20260904204507 22 354 0.0 3.2 0.00 0.71 0.03 89 1012.1
20260904203007 22 354 0.0 8.0 0.00 0.71 0.03 89 1012.2
20260904201507 22 348 0.0 6.4 0.00 0.71 0.03 89 1012.3
20260904200020 22 1 1.6 6.4 0.00 0.71 0.03 90 1012.2
20260904194507 22 1 0.0 8.0 0.00 0.76 0.03 90 1012.2
20260904193008 22 359 1.6 6.4 0.00 0.76 0.03 90 1012.3
20260904191514 22 3 1.6 6.4 0.00 0.76 0.03 90 1012.6
20260904190009 23 25 0.0 6.4 0.00 0.76 0.03 89 1012.7
20260904184509 22 352 0.0 6.4 0.00 0.76 0.03 91 1012.4
20260904183008 22 6 0.0 6.4 0.00 0.76 0.03 91 1012.6
20260904181509 23 160 0.0 6.4 0.00 0.76 0.03 89 1012.9
20260904180008 22 159 0.0 3.2 0.00 0.76 0.03 89 1013.1
20260904174511 22 159 0.0 3.2 0.00 0.76 0.03 91 1013.1
20260904173012 22 159 0.0 4.8 0.00 0.76 0.03 91 1013.4
20260904171507 22 160 1.6 4.8 0.00 0.76 0.03 93 1013.4
20260904170008 21 160 0.0 1.6 0.00 0.76 0.03 94 1013.7
20260904164509 21 160 0.0 4.8 0.00 0.76 0.03 95 1014.1
20260904163008 21 160 0.0 4.8 0.00 0.76 0.03 95 1014.2
20260904161510 20 160 0.0 3.2 0.00 0.76 0.03 96 1014.7
20260904160008 20 160 0.0 4.8 0.00 0.76 0.03 96 1015.0
20260904154509 20 160 0.0 3.2 0.00 0.76 0.03 97 1015.1
20260904153010 20 160 0.0 3.2 0.00 0.76 0.03 97 1015.3
20260904151508 20 160 0.0 3.2 0.00 0.76 0.03 97 1015.0
20260904150009 20 160 0.0 0.0 0.00 0.76 0.03 97 1015.0
20260904144509 20 160 0.0 3.2 0.03 0.76 0.03 98 1015.0
20260904143009 19 160 0.0 6.4 0.03 0.76 0.03 97 1014.7
20260904141509 19 294 1.6 4.8 0.03 0.76 0.03 97 1014.8
20260904140009 19 294 0.0 1.6 0.03 0.76 0.03 97 1014.9
20260904134508 18 294 0.0 0.0 0.00 0.71 0.00 98 1014.8
20260904133009 18 294 0.0 4.8 0.00 0.71 0.00 98 1014.4
20260904131509 18 294 0.0 0.0 0.00 0.71 0.00 97 1014.1
20260904130012 18 294 0.0 0.0 0.00 0.71 0.00 97 1014.1
20260904124509 18 294 0.0 0.0 0.00 0.71 0.00 97 1014.1
20260904123009 18 294 0.0 0.0 0.00 0.71 0.00 97 1014.4
20260904121508 18 294 0.0 0.0 0.00 0.71 0.00 98 1014.4
20260904120011 18 294 0.0 0.0 0.00 0.71 0.00 98 1014.2
20260904114509 18 294 0.0 0.0 0.00 0.71 0.00 97 1013.8
20260904113010 18 294 0.0 0.0 0.00 0.71 0.00 97 1013.9
20260904111509 17 294 0.0 0.0 0.00 0.71 0.00 97 1013.8
20260904110010 17 294 0.0 0.0 0.00 0.71 0.00 97 1013.6
20260904104510 17 294 0.0 0.0 0.00 0.71 0.00 97 1013.4
20260904103010 17 294 0.0 0.0 0.00 0.71 0.00 97 1013.2
20260904101512 18 294 0.0 3.2 0.00 0.71 0.00 97 1013.0
20260904100010 17 294 0.0 0.0 0.00 0.71 0.00 97 1013.0
20260904094513 17 294 0.0 0.0 0.00 0.71 0.00 97 1013.3
20260904093027 17 294 0.0 0.0 0.00 0.71 0.00 97 1013.4
20260904091510 17 294 0.0 0.0 0.00 0.71 0.00 97 1013.5
20260904090010 17 294 0.0 0.0 0.00 0.71 0.00 97 1013.3
20260904084510 18 294 0.0 0.0 0.00 0.71 0.00 97 1013.4
20260904083010 17 294 0.0 0.0 0.00 0.71 0.00 97 1013.6
20260904081511 17 294 0.0 0.0 0.00 0.71 0.00 97 1013.3
20260904080010 18 294 0.0 0.0 0.00 0.71 0.00 97 1012.9
20260904074512 18 294 0.0 0.0 0.00 0.71 0.00 97 1013.1
20260904073032 18 294 0.0 0.0 0.00 0.71 0.00 97 1013.5
20260904071510 18 294 0.0 0.0 0.00 0.71 0.00 97 1013.7
20260904070011 18 294 0.0 0.0 0.00 0.71 0.00 97 1013.9
20260904064517 18 294 0.0 0.0 0.00 0.71 0.00 97 1014.1
20260904063011 18 294 0.0 0.0 0.00 0.71 0.00 97 1014.1
20260904061512 18 294 0.0 0.0 0.00 0.71 0.00 97 1014.0
20260904060011 18 294 0.0 0.0 0.00 0.71 0.00 97 1013.9
20260904054513 18 294 0.0 0.0 0.00 0.76 0.00 97 1014.1
20260904053011 18 294 0.0 0.0 0.00 0.76 0.00 97 1014.1
20260904051515 18 294 0.0 3.2 0.00 0.76 0.00 97 1014.2
20260904050011 19 294 0.0 1.6 0.00 0.76 0.00 97 1014.4
20260904044511 18 45 0.0 0.0 0.00 0.76 0.00 97 1014.2
20260904043011 18 45 0.0 0.0 0.00 0.76 0.00 97 1014.2
20260904041511 18 45 0.0 0.0 0.00 0.76 0.00 97 1014.0
20260904040011 18 45 0.0 0.0 0.00 0.76 0.00 97 1013.9
20260904034511 19 45 0.0 0.0 0.00 0.76 0.76 97 1013.7
20260904033016 19 45 0.0 0.0 0.00 0.76 0.76 97 1013.6
20260904031511 20 45 0.0 0.0 0.00 0.76 0.76 97 1013.6
20260904030011 19 45 0.0 0.0 0.00 0.76 0.76 97 1013.6
20260904024511 19 45 0.0 0.0 0.00 0.76 0.76 97 1013.5
20260904023011 19 45 0.0 0.0 0.00 0.76 0.76 97 1013.4
20260904021512 19 45 0.0 0.0 0.00 0.76 0.76 97 1013.5
20260904020011 19 45 0.0 0.0 0.00 0.76 0.76 97 1013.3
20260904014512 18 45 0.0 0.0 0.00 0.84 0.76 97 1013.4
20260904013016 18 45 0.0 0.0 0.00 0.84 0.76 97 1013.3